Location: Meanaryar
(48.4161°N, 4.7315°W)
Time: 02:01:14
(UTC+00:00)

CZ-2C R/B - Pass Details

Date: 18 September 2020
Orbit: 785 x 870 km, 98.2° (Epoch: 31 October)

Event Time Altitude Azimuth Distance (km) Brightness Sun altitude
Rises 20:57:17 0° 8° (N) 3,408 6.2 -24.7°
Reaches altitude 10° 20:59:44 10° 2° (N) 2,481 5.5 -25.0°
Maximum altitude 21:04:54 43° 293° (WNW) 1,196 3.9 -25.7°
Drops below altitude 10° 21:10:07 10° 224° (SW) 2,504 5.2 -26.4°
Sets 21:12:36 0° 218° (SW) 3,442 5.9 -26.8°
